Location: 81360 Arifat, France
(43.7204°N, 2.3408°E)
Time: 08:14:09
(UTC+01:00)

Injun/Solrad 3 - All Passes

Search period start: 07 December 2025 00:00
Search period end: 17 December 2025 00:00
Orbit: 876 x 980 km, 66.8° (Epoch: 06 December)

Date Brightness Start Highest point End Pass type
(mag) Time Alt. Az. Time Alt. Az. Time Alt. Az.
07 Dec - 02:54:53 10° ESE 02:55:31 10° E 02:56:09 10° E visible
07 Dec - 04:35:04 10° SSW 04:40:55 72° ESE 04:46:45 10° NE visible
07 Dec - 06:23:17 10° W 06:27:57 24° NW 06:32:38 10° NNE visible
07 Dec - 11:51:15 10° N 11:55:45 22° NE 12:00:17 10° E daylight
07 Dec - 13:36:59 10° NNW 13:42:56 84° WSW 13:49:00 10° SSE daylight
07 Dec - 15:25:53 10° WNW 15:28:31 13° WSW 15:31:10 10° SW daylight
08 Dec - 03:02:31 10° SE 03:06:12 17° ESE 03:09:51 10° ENE visible
08 Dec - 04:46:03 10° SW 04:51:57 77° WNW 04:57:49 10° NNE visible
08 Dec - 06:35:30 10° WNW 06:39:24 18° NW 06:43:18 10° N visible
08 Dec - 12:02:00 10° NNW 12:07:07 30° NE 12:12:20 10° ESE daylight
08 Dec - 13:48:08 10° NW 13:53:54 56° WSW 13:59:50 10° SSE daylight
09 Dec - 03:12:07 10° SSE 03:16:56 27° ESE 03:21:44 10° NE visible
09 Dec - 04:57:20 10° SW 05:03:04 53° NW 05:08:48 10° NNE visible
09 Dec - 06:48:06 10° WNW 06:50:57 14° NNW 06:53:49 10° N visible
09 Dec - 10:28:15 10° N 10:30:14 12° NNE 10:32:14 10° NE daylight
09 Dec - 12:12:49 10° NNW 12:18:24 41° NE 12:24:05 10° ESE daylight
09 Dec - 13:59:25 10° NW 14:04:49 37° WSW 14:10:19 10° S daylight
10 Dec - 03:22:19 10° S 03:27:47 41° ESE 03:33:13 10° NE visible
10 Dec - 05:08:54 10° WSW 05:14:16 37° NW 05:19:41 10° NNE visible
10 Dec - 07:01:29 10° NW 07:02:37 10° NNW 07:03:43 10° NNW visible
10 Dec - 10:38:31 10° N 10:41:51 15° NNE 10:45:12 10° ENE daylight
10 Dec - 12:23:43 10° NNW 12:29:35 60° NE 12:35:34 10° SE daylight
10 Dec - 14:10:58 10° NW 14:15:38 24° WSW 14:20:23 10° SSW daylight
11 Dec - 03:32:53 10° SSW 03:38:41 63° ESE 03:44:28 10° NE visible
11 Dec - 05:20:43 10° W 05:25:36 26° NW 05:30:28 10° NNE visible
11 Dec - 10:49:06 10° N 10:53:22 20° NE 10:57:40 10° E daylight
11 Dec - 12:34:43 10° NNW 12:40:41 86° ENE 12:46:46 10° SSE daylight
11 Dec - 14:23:02 10° WNW 14:26:23 16° WSW 14:29:46 10° SW daylight
12 Dec - 02:00:57 10° SE 02:04:03 15° ESE 02:07:08 10° ENE night (unlit)
12 Dec - 03:43:47 10° SSW 03:49:41 87° WNW 03:55:34 10° NNE visible
12 Dec - 05:32:50 10° W 05:37:00 20° NW 05:41:11 10° N visible
12 Dec - 10:59:49 10° NNW 11:04:47 27° NE 11:09:48 10° E daylight
12 Dec - 12:45:48 10° NW 12:51:41 64° WSW 12:57:41 10° SSE daylight
13 Dec - 02:10:15 10° SSE 02:14:46 23° ESE 02:19:15 10° ENE night (unlit)
13 Dec - 03:54:59 10° SW 04:00:47 60° NW 04:06:34 10° NNE visible
13 Dec - 05:45:18 10° WNW 05:48:31 15° NNW 05:51:46 10° N visible
13 Dec - 09:26:26 10° NNE 09:27:47 11° NNE 09:29:06 10° NE daylight
13 Dec - 11:10:37 10° NNW 11:16:05 37° NE 11:21:38 10° ESE daylight
13 Dec - 12:57:03 10° NW 13:02:37 42° WSW 13:08:18 10° S daylight
14 Dec - 02:20:17 10° S 02:25:34 36° ESE 02:30:50 10° NE night (unlit)
14 Dec - 04:06:26 10° WSW 04:11:57 41° NW 04:17:28 10° NNE visible
14 Dec - 05:58:16 10° NW 06:00:08 11° NNW 06:01:59 10° N visible
14 Dec - 09:36:27 10° N 09:39:26 14° NNE 09:42:24 10° ENE daylight
14 Dec - 11:21:29 10° NNW 11:27:18 53° NE 11:33:13 10° SE daylight
14 Dec - 13:08:29 10° NW 13:13:28 28° WSW 13:18:30 10° SSW daylight
15 Dec - 02:30:45 10° S 02:36:28 55° ESE 02:42:09 10° NE night (unlit)
15 Dec - 04:18:10 10° WSW 04:23:14 29° NW 04:28:18 10° NNE visible
15 Dec - 09:46:58 10° N 09:50:58 18° NE 09:55:00 10° E daylight
15 Dec - 11:32:27 10° NNW 11:38:25 77° ENE 11:44:30 10° SE daylight
15 Dec - 13:20:20 10° WNW 13:24:13 18° WSW 13:28:11 10° SW daylight
16 Dec - 00:59:36 10° SE 01:01:55 12° ESE 01:04:12 10° ENE night (unlit)
16 Dec - 02:41:33 10° SSW 02:47:26 83° ESE 02:53:18 10° NNE night (unlit)
16 Dec - 04:30:11 10° W 04:34:36 22° NW 04:39:03 10° N visible
16 Dec - 09:57:39 10° NNW 10:02:25 24° NE 10:07:14 10° E daylight
16 Dec - 11:43:31 10° NW 11:49:27 73° WSW 11:55:31 10° SSE daylight
16 Dec - 13:33:25 10° W 13:34:55 11° W 13:36:25 10° WSW daylight
